�������l�o���
Date,Time,MP-1(��Sv/h),MP-2(��Sv/h),MP-3(��Sv/h),MP-4(��Sv/h),MP-5(��Sv/h),MP-6(��Sv/h),MP-7(��Sv/h),����,����(m/s),���J
2017/06/14,00:00,0.366,0.226,0.375,0.358,0.322,0.187,0.117,�쐼,1.9,��
2017/06/14,00:10,0.364,0.225,0.375,0.358,0.327,0.187,0.117,��쐼,1.2,��
2017/06/14,00:20,0.366,0.227,0.374,0.356,0.324,0.188,0.119,�쐼,1.3,��
2017/06/14,00:30,0.363,0.226,0.375,0.357,0.325,0.187,0.119,�쐼,1.1,��
2017/06/14,00:40,0.365,0.226,0.375,0.358,0.325,0.187,0.119,�쐼,1.4,��
2017/06/14,00:50,0.365,0.227,0.375,0.356,0.323,0.187,0.118,�쐼,0.9,��
2017/06/14,01:00,0.365,0.225,0.375,0.359,0.326,0.187,0.118,���쐼,1.0,��
2017/06/14,01:10,0.366,0.227,0.375,0.356,0.325,0.188,0.120,��,0.6,��
2017/06/14,01:20,0.366,0.225,0.377,0.359,0.325,0.188,0.118,���쐼,1.6,��
2017/06/14,01:30,0.365,0.226,0.374,0.357,0.324,0.187,0.119,�쐼,1.9,��
2017/06/14,01:40,0.363,0.225,0.377,0.359,0.325,0.188,0.119,���쐼,0.5,��
2017/06/14,01:50,0.366,0.226,0.377,0.360,0.325,0.189,0.119,�쐼,0.5,��
2017/06/14,02:00,0.363,0.226,0.374,0.358,0.325,0.187,0.118,��쐼,0.9,��
2017/06/14,02:10,0.366,0.226,0.375,0.359,0.326,0.187,0.118,��쐼,2.5,��
2017/06/14,02:20,0.365,0.225,0.374,0.357,0.323,0.186,0.118,��쐼,3.0,��
2017/06/14,02:30,0.367,0.226,0.375,0.359,0.326,0.187,0.119,��쐼,2.6,��
2017/06/14,02:40,0.365,0.226,0.375,0.356,0.324,0.187,0.118,��,2.2,��
2017/06/14,02:50,0.366,0.225,0.376,0.358,0.326,0.188,0.118,��쓌,2.4,��
2017/06/14,03:00,0.365,0.226,0.373,0.356,0.324,0.188,0.118,��,3.6,��
2017/06/14,03:10,0.367,0.225,0.374,0.358,0.324,0.188,0.119,��,3.7,��
2017/06/14,03:20,0.365,0.226,0.376,0.356,0.324,0.187,0.118,��,4.0,��
2017/06/14,03:30,0.364,0.226,0.374,0.359,0.324,0.188,0.118,��,3.9,��
2017/06/14,03:40,0.365,0.226,0.376,0.356,0.324,0.188,0.119,��,2.8,��
2017/06/14,03:50,0.365,0.225,0.374,0.358,0.324,0.188,0.118,��쐼,2.9,��
2017/06/14,04:00,0.365,0.226,0.377,0.358,0.324,0.186,0.118,��쐼,2.6,��
2017/06/14,04:10,0.363,0.226,0.375,0.357,0.326,0.187,0.118,��쐼,3.1,��
2017/06/14,04:20,0.366,0.225,0.376,0.358,0.325,0.186,0.118,��,3.4,��
2017/06/14,04:30,0.364,0.227,0.374,0.357,0.324,0.189,0.119,��쐼,3.5,��
2017/06/14,04:40,0.367,0.226,0.376,0.358,0.326,0.187,0.118,��쐼,3.3,��
2017/06/14,04:50,0.365,0.226,0.375,0.355,0.324,0.187,0.118,��쐼,3.3,��
2017/06/14,05:00,0.367,0.227,0.377,0.360,0.325,0.187,0.119,��쐼,3.1,��
2017/06/14,05:10,0.363,0.228,0.376,0.357,0.324,0.188,0.119,��쐼,3.7,��
2017/06/14,05:20,0.366,0.226,0.375,0.359,0.326,0.187,0.118,��,2.7,��
2017/06/14,05:30,0.363,0.227,0.375,0.357,0.323,0.187,0.118,��,1.9,��
2017/06/14,05:40,0.367,0.226,0.374,0.359,0.326,0.188,0.118,��,0.8,��
2017/06/14,05:50,0.363,0.225,0.377,0.358,0.323,0.188,0.119,���쓌,0.7,��
2017/06/14,06:00,0.367,0.228,0.374,0.359,0.326,0.188,0.118,���쓌,0.8,��
2017/06/14,06:10,0.363,0.227,0.377,0.357,0.324,0.188,0.119,�k��,1.4,��
2017/06/14,06:20,0.367,0.227,0.374,0.360,0.326,0.189,0.119,�k�k��,1.4,��
2017/06/14,06:30,0.364,0.226,0.377,0.357,0.323,0.188,0.120,�k�k��,1.4,��
2017/06/14,06:40,0.366,0.227,0.375,0.361,0.328,0.188,0.119,�k,1.1,��
2017/06/14,06:50,0.364,0.227,0.376,0.357,0.323,0.187,0.119,�k,1.1,��
2017/06/14,07:00,0.368,0.228,0.373,0.360,0.328,0.188,0.119,�k�k��,1.3,��
2017/06/14,07:10,0.364,0.227,0.376,0.356,0.323,0.188,0.120,�k,1.1,��
2017/06/14,07:20,0.366,0.226,0.375,0.360,0.327,0.188,0.119,�k�k��,1.3,��
2017/06/14,07:30,0.364,0.226,0.376,0.357,0.324,0.189,0.119,�k�k��,1.6,��
2017/06/14,07:40,0.365,0.227,0.376,0.358,0.325,0.189,0.119,�k,2.0,��
2017/06/14,07:50,0.367,0.226,0.375,0.357,0.325,0.188,0.119,�k,1.9,��
2017/06/14,08:00,0.365,0.226,0.375,0.357,0.325,0.188,0.118,�k�k��,2.2,��
2017/06/14,08:10,0.367,0.226,0.374,0.359,0.327,0.189,0.120,�k�k��,1.9,��
2017/06/14,08:20,0.364,0.226,0.376,0.357,0.324,0.188,0.120,�k��,3.2,��
2017/06/14,08:30,0.367,0.226,0.374,0.361,0.327,0.188,0.118,�k�k��,3.6,��
2017/06/14,08:40,0.364,0.226,0.377,0.356,0.324,0.188,0.119,�k�k��,4.8,��
2017/06/14,08:50,0.366,0.226,0.374,0.360,0.327,0.188,0.119,�k�k��,5.4,��
2017/06/14,09:00,0.363,0.227,0.377,0.356,0.325,0.187,0.119,�k�k��,6.2,��
2017/06/14,09:10,0.367,0.225,0.374,0.360,0.324,0.187,0.118,�k�k��,5.2,��
2017/06/14,09:20,0.364,0.227,0.374,0.356,0.326,0.187,0.119,�k�k��,5.5,��
2017/06/14,09:30,0.366,0.227,0.375,0.353,0.322,0.186,0.117,�k�k��,5.2,��
2017/06/14,09:40,0.366,0.225,0.371,-,0.323,0.187,0.118,�k�k��,5.1,��
2017/06/14,09:50,0.362,0.225,0.376,-,0.324,0.187,0.118,�k�k��,4.4,��
2017/06/14,10:00,0.367,0.225,0.374,-,0.323,0.186,0.118,�k�k��,4.8,��
2017/06/14,10:10,0.364,0.226,0.373,-,0.323,0.187,0.117,�k�k��,4.0,��
2017/06/14,10:20,0.362,0.225,0.377,-,0.326,0.188,0.118,�k,4.2,��
2017/06/14,10:30,0.364,0.224,0.373,-,0.322,0.187,0.118,�k�k��,4.5,��
2017/06/14,10:40,0.364,0.226,0.372,-,0.323,0.187,0.117,�k�k��,4.7,��
2017/06/14,10:50,0.367,0.226,0.377,-,0.325,0.187,0.118,�k�k��,4.0,��
2017/06/14,11:00,0.364,0.226,0.372,-,0.322,0.186,0.117,�k�k��,4.8,��
2017/06/14,11:10,0.365,0.227,0.374,-,0.324,0.187,0.118,�k�k��,4.5,��
2017/06/14,11:20,0.366,0.225,0.375,-,0.326,0.187,0.118,�k�k��,3.0,��
2017/06/14,11:30,0.361,0.225,0.373,-,0.323,0.187,0.117,�k��,3.5,��
2017/06/14,11:40,0.363,0.226,0.369,-,0.321,0.187,0.117,�k�k��,3.2,��
2017/06/14,11:50,0.366,0.225,0.374,-,0.323,0.186,0.118,�k��,3.9,��
2017/06/14,12:00,0.362,0.226,0.376,-,0.326,0.187,0.118,�k�k��,4.1,��
2017/06/14,12:10,0.364,0.225,0.372,-,0.325,0.187,0.117,�k�k��,4.1,��
2017/06/14,12:20,0.365,0.223,0.370,-,0.322,0.187,0.117,�k��,3.4,��
2017/06/14,12:30,0.363,0.225,0.372,-,0.321,0.188,0.118,�k��,4.3,��
2017/06/14,12:40,0.365,0.226,0.375,-,0.326,0.189,0.118,���k��,4.0,��
2017/06/14,12:50,0.365,0.224,0.376,-,0.326,0.187,0.117,���k��,3.3,��
2017/06/14,13:00,0.362,0.225,0.373,-,0.323,0.187,0.118,���k��,3.6,��
2017/06/14,13:10,0.361,0.228,0.372,-,0.322,0.188,0.118,���k��,2.8,��
2017/06/14,13:20,0.367,0.225,0.370,-,0.321,0.188,0.118,��,2.8,��
2017/06/14,13:30,0.365,0.225,0.374,-,0.327,0.187,0.117,���쓌,2.9,��
2017/06/14,13:40,0.361,0.225,0.377,-,0.326,0.188,0.118,��,3.1,��
2017/06/14,13:50,0.365,0.227,0.375,-,0.325,0.187,0.118,��,3.3,��
2017/06/14,14:00,0.366,0.225,0.374,-,0.322,0.188,0.117,��,3.3,��
2017/06/14,14:10,0.363,0.225,0.373,-,0.322,0.187,0.117,��,2.8,��
2017/06/14,14:20,0.361,0.227,0.373,-,0.323,0.187,0.118,��,4.3,��
2017/06/14,14:30,0.366,0.226,0.371,-,0.328,0.187,0.118,��,3.4,��
2017/06/14,14:40,0.366,0.225,0.373,-,0.327,0.188,0.118,��,3.9,��
2017/06/14,14:50,0.361,0.225,0.378,-,0.323,0.188,0.117,��,3.2,��
2017/06/14,15:00,0.365,0.227,0.378,-,0.323,0.187,0.117,��,3.1,��
2017/06/14,15:10,0.366,0.226,0.373,0.352,0.323,0.187,0.118,���쓌,2.2,��
2017/06/14,15:20,0.363,0.225,0.374,0.349,0.328,0.188,0.118,��,2.3,��
2017/06/14,15:30,0.368,0.226,0.378,0.352,0.324,0.187,0.118,��,2.7,��
2017/06/14,15:40,0.367,0.227,0.377,0.352,0.323,0.187,0.118,��,2.9,��
2017/06/14,15:50,0.363,0.225,0.375,0.349,0.324,0.188,0.119,���k��,2.5,��
2017/06/14,16:00,0.367,0.226,0.375,0.353,0.326,0.189,0.118,��,2.8,��
2017/06/14,16:10,0.365,0.226,0.379,0.351,0.325,0.187,0.119,��,2.8,��
2017/06/14,16:20,0.364,0.226,0.375,0.349,0.324,0.189,0.118,��,2.1,��
2017/06/14,16:30,0.368,0.228,0.377,0.353,0.329,0.187,0.118,�k��,1.9,��
2017/06/14,16:40,0.364,0.225,0.377,0.349,0.324,0.187,0.118,���k��,1.6,��
2017/06/14,16:50,0.367,0.227,0.376,0.351,0.327,0.189,0.118,���k��,1.5,��
2017/06/14,17:00,0.367,0.226,0.380,0.351,0.328,0.188,0.119,�k�k��,1.0,��
2017/06/14,17:10,0.366,0.228,0.376,0.351,0.324,0.188,0.118,�k��,0.8,��
2017/06/14,17:20,0.367,0.226,0.380,0.352,0.328,0.189,0.118,���k��,1.6,��
2017/06/14,17:30,0.365,0.228,0.376,0.350,0.324,0.188,0.118,�k��,1.8,��
2017/06/14,17:40,0.368,0.227,0.379,0.354,0.327,0.189,0.118,��,2.0,��
2017/06/14,17:50,0.362,0.226,0.376,0.350,0.325,0.189,0.119,�k��,1.6,�L
2017/06/14,18:00,0.365,0.227,0.376,0.354,0.327,0.187,0.119,��,1.4,�L
2017/06/14,18:10,0.364,0.226,0.378,0.352,0.328,0.187,0.118,��,1.3,��
2017/06/14,18:20,0.366,0.227,0.376,0.350,0.324,0.188,0.118,���k��,2.1,��
2017/06/14,18:30,0.366,0.227,0.377,0.353,0.327,0.188,0.118,�k�k��,2.3,��
2017/06/14,18:40,0.365,0.227,0.375,0.350,0.325,0.188,0.118,�k�k��,1.6,��
2017/06/14,18:50,0.366,0.226,0.379,0.352,0.327,0.188,0.119,�k�k��,1.1,��
2017/06/14,19:00,0.366,0.227,0.376,0.349,0.324,0.188,0.118,�k�k��,1.6,��
2017/06/14,19:10,0.367,0.226,0.379,0.354,0.328,0.188,0.118,�k�k��,1.6,��
2017/06/14,19:20,0.365,0.226,0.375,0.349,0.324,0.188,0.118,�k,0.8,��
2017/06/14,19:30,0.366,0.227,0.377,0.352,0.327,0.187,0.118,�k�k��,1.5,��
2017/06/14,19:40,0.364,0.227,0.375,0.349,0.326,0.187,0.118,�k,1.5,��
2017/06/14,19:50,0.368,0.226,0.379,0.352,0.325,0.188,0.118,�k�k��,1.7,��
2017/06/14,20:00,0.363,0.227,0.375,0.350,0.327,0.188,0.118,�k,1.6,��
2017/06/14,20:10,0.367,0.225,0.378,0.351,0.327,0.189,0.118,�k,1.1,��
2017/06/14,20:20,0.364,0.227,0.376,0.353,0.326,0.188,0.118,�k�k��,1.4,��
2017/06/14,20:30,0.367,0.226,0.379,0.350,0.325,0.188,0.118,�k��,0.9,��
2017/06/14,20:40,0.365,0.227,0.377,0.352,0.327,0.187,0.119,�k�k��,1.2,��
2017/06/14,20:50,0.366,0.226,0.377,0.351,0.325,0.188,0.119,�k,0.6,��
2017/06/14,21:00,0.364,0.227,0.377,0.352,0.327,0.188,0.118,�k�k��,1.0,��
2017/06/14,21:10,0.366,0.226,0.380,0.349,0.326,0.187,0.118,�k,1.4,��
2017/06/14,21:20,0.366,0.227,0.376,0.353,0.327,0.187,0.119,�k,1.8,��
2017/06/14,21:30,0.366,0.227,0.378,0.350,0.325,0.187,0.118,�k,2.5,��
2017/06/14,21:40,0.366,0.226,0.376,0.352,0.326,0.187,0.119,�k,1.4,��
2017/06/14,21:50,0.366,0.227,0.378,0.351,0.326,0.189,0.118,�k,1.1,��
2017/06/14,22:00,0.366,0.227,0.376,0.353,0.326,0.188,0.118,�k�k��,1.2,��
2017/06/14,22:10,0.366,0.227,0.379,0.353,0.327,0.189,0.118,�k�k��,0.8,��
2017/06/14,22:20,0.366,0.227,0.377,0.352,0.325,0.188,0.118,�k�k��,0.8,��
2017/06/14,22:30,0.367,0.225,0.378,0.351,0.326,0.188,0.118,�k,0.5,��
2017/06/14,22:40,0.365,0.227,0.377,0.351,0.324,0.189,0.118,�k�k��,1.1,��
2017/06/14,22:50,0.368,0.227,0.378,0.353,0.327,0.186,0.119,�k�k��,1.5,��
2017/06/14,23:00,0.364,0.226,0.377,0.352,0.325,0.189,0.118,�k,1.3,��
2017/06/14,23:10,0.368,0.226,0.379,0.351,0.327,0.188,0.118,�k�k��,1.7,��
2017/06/14,23:20,0.365,0.228,0.378,0.352,0.326,0.187,0.119,�k��,1.9,��
2017/06/14,23:30,0.368,0.226,0.377,0.353,0.327,0.188,0.118,���k��,1.9,��
2017/06/14,23:40,0.364,0.227,0.379,0.350,0.323,0.188,0.119,��,1.5,��
2017/06/14,23:50,0.368,0.227,0.377,0.353,0.326,0.187,0.118,��,1.2,��
